DW6996 Weather Reports


Display with metric or nautical units.
time (UTC)temp
F
wind
direction
speed
MPH
gust
MPH
rain 1hr
in
rain 24hr
in
rain mn
in
humidity
%
barometer
mb
20260904062201 91 123 0.0 5.0 0.00 0.00 0.00 43 1008.6
20260904061701 91 133 0.0 5.0 0.00 0.00 0.00 42 1008.5
20260904061201 91 124 0.0 7.0 0.00 0.00 0.00 42 1008.5
20260904060701 91 150 0.0 7.0 0.00 0.00 0.00 42 1008.5
20260904060201 91 169 0.0 1.0 0.00 0.00 0.00 41 1008.5
20260904055701 92 152 0.0 0.0 0.00 0.00 0.00 40 1008.4
20260904055200 92 155 0.0 0.0 0.00 0.00 0.00 40 1008.3
20260904054701 92 144 0.0 3.0 0.00 0.00 0.00 39 1008.3
20260904054424 92 169 0.0 5.0 0.00 0.00 0.00 39 1008.3
20260904054145 92 148 0.0 5.0 0.00 0.00 0.00 39 1008.2
20260904053200 92 142 0.0 2.0 0.00 0.00 0.00 39 1008.2
20260904052701 92 138 0.0 2.0 0.00 0.00 0.00 39 1008.1
20260904052200 92 141 0.0 3.0 0.00 0.00 0.00 39 1008.2
20260904052136 92 128 0.0 4.0 0.00 0.00 0.00 39 1008.1
20260904051901 92 123 0.0 4.0 0.00 0.00 0.00 39 1008.2
20260904050923 92 126 0.0 1.0 0.00 0.00 0.00 39 1008.1
20260904050200 92 112 0.0 1.0 0.00 0.00 0.00 39 1008.1
20260904045702 92 142 0.0 2.0 0.00 0.00 0.00 39 1008.0
20260904045201 92 141 0.0 2.0 0.00 0.00 0.00 39 1008.0
20260904044701 92 133 0.0 3.0 0.00 0.00 0.00 39 1008.0
20260904044201 92 128 0.0 10.0 0.00 0.00 0.00 39 1008.1
20260904043922 92 118 0.0 10.0 0.00 0.00 0.00 39 1008.1
20260904043200 92 121 1.0 11.0 0.00 0.00 0.00 39 1008.1
20260904042701 92 136 1.0 11.0 0.00 0.00 0.00 40 1008.1
20260904042201 92 126 1.0 10.0 0.00 0.00 0.00 40 1008.0
20260904041701 92 119 0.0 10.0 0.00 0.00 0.00 41 1008.0
20260904041201 92 161 0.0 0.0 0.00 0.00 0.00 41 1008.0
20260904040701 92 155 0.0 3.0 0.00 0.00 0.00 41 1007.8
20260904040200 92 145 1.0 10.0 0.00 0.00 0.00 41 1007.8
20260904035702 92 128 0.0 10.0 0.00 0.00 0.00 41 1007.8
20260904035201 92 136 0.0 3.0 0.00 0.00 0.00 41 1007.7
20260904034701 92 125 0.0 8.0 0.00 0.00 0.00 41 1007.6
20260904034201 92 138 0.0 8.0 0.00 0.00 0.00 41 1007.6
20260904033701 92 136 0.0 1.0 0.00 0.00 0.00 41 1007.5
20260904033645 92 148 0.0 1.0 0.00 0.00 0.00 40 1007.5
20260904032702 92 176 0.0 4.0 0.00 0.00 0.00 40 1007.5
20260904032201 92 168 1.0 7.0 0.00 0.00 0.00 40 1007.3
20260904031701 93 128 1.0 10.0 0.00 0.00 0.00 39 1007.3
20260904031201 93 114 1.0 10.0 0.00 0.00 0.00 38 1007.3
20260904030701 93 184 0.0 7.0 0.00 0.00 0.00 38 1007.2
20260904030430 93 153 1.0 6.0 0.00 0.00 0.00 38 1007.1
20260904025702 94 138 0.0 6.0 0.00 0.00 0.00 38 1007.1
20260904025200 94 129 0.0 4.0 0.00 0.00 0.00 38 1007.0
20260904024701 94 142 0.0 10.0 0.00 0.00 0.00 38 1006.9
20260904024200 94 165 1.0 10.0 0.00 0.00 0.00 38 1006.8
20260904023655 94 123 3.0 11.0 0.00 0.00 0.00 38 1006.8
20260904023150 94 121 3.0 11.0 0.00 0.00 0.00 38 1006.7
20260904022644 94 123 4.0 15.0 0.00 0.00 0.00 38 1006.8
20260904022137 94 137 6.0 16.0 0.00 0.00 0.00 37 1006.7
20260904021638 95 138 3.0 16.0 0.00 0.00 0.00 37 1006.7
20260904021138 96 140 1.0 11.0 0.00 0.00 0.00 37 1006.5
20260904020638 96 177 2.0 13.0 0.00 0.00 0.00 36 1006.5
20260904020137 97 144 1.0 13.0 0.00 0.00 0.00 34 1006.6
20260904015856 98 150 0.0 1.0 0.00 0.00 0.00 30 1006.5
20260904015136 98 186 0.0 0.0 0.00 0.00 0.00 30 1006.3
20260904014636 98 209 0.0 0.0 0.00 0.00 0.00 30 1006.3
20260904014136 98 209 0.0 0.0 0.00 0.00 0.00 30 1006.3
20260904013634 98 214 0.0 0.0 0.00 0.00 0.00 29 1006.3
20260904013133 98 215 0.0 0.0 0.00 0.00 0.00 29 1006.3
20260904012632 98 217 0.0 0.0 0.00 0.00 0.00 29 1006.3
20260904012132 98 216 0.0 0.0 0.00 0.00 0.00 29 1006.4
20260904011848 98 215 0.0 0.0 0.00 0.00 0.00 29 1006.3
20260904011130 99 214 0.0 0.0 0.00 0.00 0.00 29 1006.3
20260904010629 99 205 0.0 0.0 0.00 0.00 0.00 29 1006.4
20260904010129 99 198 0.0 0.0 0.00 0.00 0.00 28 1006.4
20260904005628 100 222 0.0 2.0 0.00 0.00 0.00 28 1006.4
20260904005129 100 267 0.0 2.0 0.00 0.00 0.00 28 1006.4
20260904004626 100 198 0.0 0.0 0.00 0.00 0.00 28 1006.4
20260904004119 100 197 0.0 1.0 0.00 0.00 0.00 28 1006.4
20260904003620 100 197 0.0 5.0 0.00 0.00 0.00 28 1006.4
20260904003117 100 235 0.0 5.0 0.00 0.00 0.00 28 1006.4
20260904002616 100 234 0.0 0.0 0.00 0.00 0.00 28 1006.4
20260904002114 100 251 0.0 1.0 0.00 0.00 0.00 29 1006.4
20260904001612 100 219 0.0 1.0 0.00 0.00 0.00 29 1006.5
20260904001112 100 194 0.0 0.0 0.00 0.00 0.00 29 1006.5
20260904000613 100 195 0.0 0.0 0.00 0.00 0.00 28 1006.5
20260904000112 100 202 0.0 0.0 0.00 0.00 0.00 28 1006.6
20260903235612 100 212 0.0 0.0 0.00 0.00 0.00 28 1006.6
20260903235113 101 211 0.0 0.0 0.00 0.00 0.00 28 1006.6
20260903234837 101 254 0.0 1.0 0.00 0.00 0.00 27 1006.6
20260903234111 101 225 0.0 1.0 0.00 0.00 0.00 27 1006.7
20260903234058 101 187 0.0 1.0 0.00 0.00 0.00 27 1006.7
20260903233343 101 175 0.0 0.0 0.00 0.00 0.00 28 1006.8
20260903232833 101 180 0.0 2.0 0.00 0.00 0.00 28 1006.8
20260903232110 101 200 0.0 2.0 0.00 0.00 0.00 28 1006.9
20260903231611 101 146 0.0 0.0 0.00 0.00 0.00 28 1006.9
20260903231106 101 145 0.0 4.0 0.00 0.00 0.00 28 1006.9
20260903230606 101 161 0.0 4.0 0.00 0.00 0.00 28 1007.0
20260903230106 101 202 0.0 3.0 0.00 0.00 0.00 28 1007.1
20260903225605 101 207 0.0 1.0 0.00 0.00 0.00 28 1007.1
20260903225106 101 188 0.0 4.0 0.00 0.00 0.00 28 1007.1
20260903224606 101 135 0.0 4.0 0.00 0.00 0.00 28 1007.2
20260903224337 101 205 0.0 8.0 0.00 0.00 0.00 28 1007.2
20260903223605 101 191 0.0 8.0 0.00 0.00 0.00 28 1007.2
20260903223106 101 194 0.0 1.0 0.00 0.00 0.00 28 1007.3
20260903222601 101 207 0.0 0.0 0.00 0.00 0.00 29 1007.4
20260903222102 100 229 0.0 0.0 0.00 0.00 0.00 29 1007.5
20260903221602 99 221 0.0 0.0 0.00 0.00 0.00 30 1007.5
20260903221101 99 224 0.0 0.0 0.00 0.00 0.00 30 1007.6
20260903220601 99 232 0.0 6.0 0.00 0.00 0.00 29 1007.7
20260903220101 100 237 0.0 6.0 0.00 0.00 0.00 29 1007.7
20260903215602 100 194 0.0 1.0 0.00 0.00 0.00 29 1007.8
20260903215101 100 138 1.0 9.0 0.00 0.00 0.00 29 1008.0
20260903214601 100 127 1.0 9.0 0.00 0.00 0.00 28 1008.1
20260903214101 100 159 0.0 2.0 0.00 0.00 0.00 29 1008.1
20260903213600 100 175 0.0 11.0 0.00 0.00 0.00 29 1008.2
20260903213101 99 177 0.0 11.0 0.00 0.00 0.00 29 1008.3
20260903212600 99 138 0.0 5.0 0.00 0.00 0.00 29 1008.5
20260903212101 99 122 0.0 5.0 0.00 0.00 0.00 29 1008.5
20260903211602 99 192 1.0 10.0 0.00 0.00 0.00 29 1008.6
20260903211327 99 179 1.0 10.0 0.00 0.00 0.00 29 1008.7
20260903210602 99 121 1.0 10.0 0.00 0.00 0.00 29 1008.7
20260903205826 98 119 0.0 6.0 0.00 0.00 0.00 29 1008.8
20260903205101 98 176 0.0 8.0 0.00 0.00 0.00 29 1009.0
20260903204601 98 223 2.0 15.0 0.00 0.00 0.00 30 1009.0
20260903204101 98 141 2.0 15.0 0.00 0.00 0.00 31 1009.1
20260903203601 98 165 1.0 10.0 0.00 0.00 0.00 31 1009.1
20260903203057 98 130 1.0 10.0 0.00 0.00 0.00 31 1009.3
20260903202812 98 219 1.0 7.0 0.00 0.00 0.00 31 1009.3
20260903202043 98 168 1.0 7.0 0.00 0.00 0.00 31 1009.3
20260903202018 98 133 1.0 7.0 0.00 0.00 0.00 31 1009.4
20260903201037 98 136 1.0 11.0 0.00 0.00 0.00 31 1009.5
20260903200535 98 144 1.0 11.0 0.00 0.00 0.00 32 1009.5
20260903200033 98 204 1.0 9.0 0.00 0.00 0.00 31 1009.7
20260903195534 97 155 2.0 12.0 0.00 0.00 0.00 31 1009.6
20260903195033 97 154 2.0 12.0 0.00 0.00 0.00 32 1009.6
20260903195013 97 136 1.0 12.0 0.00 0.00 0.00 32 1009.7
20260903194032 97 164 1.0 10.0 0.00 0.00 0.00 31 1009.8
20260903193531 97 209 1.0 13.0 0.00 0.00 0.00 31 1009.9
20260903193033 98 134 1.0 13.0 0.00 0.00 0.00 31 1009.8
20260903192531 97 235 1.0 7.0 0.00 0.00 0.00 31 1009.9
20260903192032 97 138 1.0 11.0 0.00 0.00 0.00 32 1010.0
20260903191532 97 215 0.0 11.0 0.00 0.00 0.00 32 1010.2
20260903191031 97 149 0.0 1.0 0.00 0.00 0.00 33 1010.3
20260903190531 96 197 0.0 2.0 0.00 0.00 0.00 33 1010.4
20260903190029 96 193 0.0 10.0 0.00 0.00 0.00 33 1010.6
20260903185529 96 121 1.0 10.0 0.00 0.00 0.00 33 1010.6
20260903185030 96 140 1.0 8.0 0.00 0.00 0.00 34 1010.8
20260903184530 95 138 1.0 10.0 0.00 0.00 0.00 37 1010.8
20260903184023 95 105 1.0 10.0 0.00 0.00 0.00 37 1010.9
20260903183518 95 135 0.0 8.0 0.00 0.00 0.00 37 1010.9
20260903183012 95 147 0.0 8.0 0.00 0.00 0.00 37 1011.0
20260903182507 95 167 1.0 10.0 0.00 0.00 0.00 38 1011.2
20260903182007 94 161 1.0 10.0 0.00 0.00 0.00 38 1011.2
20260903181506 94 120 0.0 8.0 0.00 0.00 0.00 38 1011.3
20260903181007 94 161 0.0 5.0 0.00 0.00 0.00 38 1011.3
20260903180508 93 149 1.0 5.0 0.00 0.00 0.00 39 1011.5
20260903180232 93 133 0.0 9.0 0.00 0.00 0.00 40 1011.5
20260903175505 93 148 1.0 9.0 0.00 0.00 0.00 41 1011.6
20260903175005 93 140 1.0 8.0 0.00 0.00 0.00 41 1011.6
20260903174505 93 132 1.0 14.0 0.00 0.00 0.00 41 1011.7
20260903174005 93 98 1.0 14.0 0.00 0.00 0.00 42 1011.6
20260903173505 92 188 1.0 8.0 0.00 0.00 0.00 43 1011.7
20260903173005 92 161 1.0 9.0 0.00 0.00 0.00 43 1011.7
20260903172501 92 161 1.0 9.0 0.00 0.00 0.00 43 1011.7
20260903172001 92 149 1.0 15.0 0.00 0.00 0.00 44 1011.7
20260903171501 92 141 1.0 15.0 0.00 0.00 0.00 44 1011.8
20260903171001 92 150 1.0 7.0 0.00 0.00 0.00 44 1011.7
20260903170501 92 105 1.0 7.0 0.00 0.00 0.00 44 1011.8
20260903170001 92 139 0.0 6.0 0.00 0.00 0.00 44 1011.8
20260903165455 92 164 0.0 7.0 0.00 0.00 0.00 44 1011.8
20260903164950 92 159 0.0 7.0 0.00 0.00 0.00 44 1011.7
20260903164450 92 148 0.0 0.0 0.00 0.00 0.00 45 1011.8
20260903164223 91 178 0.0 0.0 0.00 0.00 0.00 45 1011.8
20260903163451 91 187 0.0 0.0 0.00 0.00 0.00 45 1011.9
20260903162951 90 188 0.0 5.0 0.00 0.00 0.00 45 1011.9
20260903162450 90 155 0.0 5.0 0.00 0.00 0.00 46 1011.9
20260903162206 90 195 0.0 2.0 0.00 0.00 0.00 47 1011.9
20260903161445 90 169 0.0 2.0 0.00 0.00 0.00 47 1012.0
20260903161206 89 119 0.0 4.0 0.00 0.00 0.00 48 1011.9
20260903160444 89 124 0.0 4.0 0.00 0.00 0.00 48 1012.0
20260903155941 89 134 0.0 3.0 0.00 0.00 0.00 48 1012.1
20260903155439 89 155 0.0 6.0 0.00 0.00 0.00 49 1012.1
20260903154937 89 167 0.0 6.0 0.00 0.00 0.00 49 1012.0
20260903154437 89 193 0.0 1.0 0.00 0.00 0.00 49 1012.0
20260903153937 88 165 0.0 1.0 0.00 0.00 0.00 49 1012.0
20260903153437 88 151 0.0 4.0 0.00 0.00 0.00 50 1012.0
20260903152936 88 140 0.0 4.0 0.00 0.00 0.00 51 1012.0
20260903152650 88 166 0.0 1.0 0.00 0.00 0.00 52 1012.0
20260903151932 88 178 0.0 0.0 0.00 0.00 0.00 52 1012.0
20260903151656 87 209 0.0 0.0 0.00 0.00 0.00 52 1012.1
20260903150932 87 196 0.0 0.0 0.00 0.00 0.00 53 1012.1
20260903150430 87 147 0.0 0.0 0.00 0.00 0.00 54 1012.1
20260903145931 86 232 0.0 3.0 0.00 0.00 0.00 54 1012.1
20260903145650 86 233 0.0 3.0 0.00 0.00 0.00 54 1012.1
20260903144930 86 210 0.0 1.0 0.00 0.00 0.00 55 1012.1
20260903144431 86 205 0.0 1.0 0.00 0.00 0.00 56 1012.1
20260903143930 85 200 0.0 0.0 0.00 0.00 0.00 57 1012.1
20260903143431 85 198 0.0 0.0 0.00 0.00 0.00 57 1012.0
20260903142932 85 207 0.0 0.0 0.00 0.00 0.00 57 1012.0
20260903142430 84 202 0.0 0.0 0.00 0.00 0.00 58 1012.0
20260903141931 84 255 0.0 3.0 0.00 0.00 0.00 59 1012.0
20260903141431 84 255 0.0 3.0 0.00 0.00 0.00 59 1011.9
20260903141414 83 240 0.0 0.0 0.00 0.00 0.00 59 1011.8
20260903140431 83 240 0.0 0.0 0.00 0.00 0.00 59 1011.7
20260903135929 83 230 0.0 0.0 0.00 0.00 0.00 59 1011.7
20260903135655 83 229 0.0 0.0 0.00 0.00 0.00 59 1011.7
20260903134929 83 229 0.0 0.0 0.00 0.00 0.00 59 1011.6
20260903134429 83 218 0.0 0.0 0.00 0.00 0.00 59 1011.5
20260903133930 83 218 0.0 0.0 0.00 0.00 0.00 59 1011.5
20260903133429 83 218 0.0 0.0 0.00 0.00 0.00 59 1011.4
20260903132929 83 218 0.0 0.0 0.00 0.00 0.00 59 1011.4
20260903132429 83 218 0.0 0.0 0.00 0.00 0.00 59 1011.3
20260903131929 83 218 0.0 0.0 0.00 0.00 0.00 58 1011.2
20260903131429 83 218 0.0 0.0 0.00 0.00 0.00 58 1011.2
20260903130929 83 212 0.0 0.0 0.00 0.00 0.00 58 1011.2
20260903130435 84 196 0.0 0.0 0.00 0.00 0.00 57 1011.2
20260903130431 83 196 0.0 0.0 0.00 0.00 0.00 57 1011.2
20260903125428 84 196 0.0 0.0 0.00 0.00 0.00 56 1011.2
20260903124929 84 196 0.0 0.0 0.00 0.00 0.00 56 1011.1
20260903124430 84 196 0.0 0.0 0.00 0.00 0.00 56 1011.0
20260903123926 84 196 0.0 0.0 0.00 0.00 0.00 56 1011.0
20260903123419 84 196 0.0 0.0 0.00 0.00 0.00 56 1010.9
20260903122914 84 196 0.0 0.0 0.00 0.00 0.00 56 1010.9
20260903122639 84 196 0.0 1.0 0.00 0.00 0.00 55 1010.8
20260903122406 84 224 0.0 1.0 0.00 0.00 0.00 55 1010.8
20260903121640 84 214 0.0 0.0 0.00 0.00 0.00 55 1010.7
20260903120914 85 245 0.0 1.0 0.00 0.00 0.00 55 1010.7
20260903120642 85 248 0.0 1.0 0.00 0.00 0.00 54 1010.6
20260903115912 85 213 0.0 1.0 0.00 0.00 0.00 54 1010.6
20260903115410 85 218 0.0 1.0 0.00 0.00 0.00 54 1010.6
20260903114909 85 219 0.0 1.0 0.00 0.00 0.00 54 1010.4
20260903114628 85 219 0.0 0.0 0.00 0.00 0.00 54 1010.4
20260903113904 85 220 0.0 0.0 0.00 0.00 0.00 54 1010.3
20260903113401 85 227 0.0 0.0 0.00 0.00 0.00 54 1010.3
20260903112901 85 255 0.0 0.0 0.00 0.00 0.00 53 1010.3
20260903112402 85 242 0.0 2.0 0.00 0.00 0.00 53 1010.3
20260903111901 85 240 0.0 2.0 0.00 0.00 0.00 53 1010.3
20260903111618 85 247 0.0 1.0 0.00 0.00 0.00 53 1010.3
20260903110901 85 227 0.0 1.0 0.00 0.00 0.00 52 1010.3
20260903110628 85 234 0.0 1.0 0.00 0.00 0.00 52 1010.3
20260903105900 85 219 0.0 1.0 0.00 0.00 0.00 51 1010.3
20260903105402 85 223 0.0 0.0 0.00 0.00 0.00 50 1010.3
20260903104900 86 229 0.0 1.0 0.00 0.00 0.00 49 1010.3
20260903104401 86 230 0.0 1.0 0.00 0.00 0.00 49 1010.3
20260903103901 86 227 0.0 1.0 0.00 0.00 0.00 48 1010.3
20260903103628 86 236 0.0 1.0 0.00 0.00 0.00 48 1010.3
20260903102902 86 230 0.0 1.0 0.00 0.00 0.00 47 1010.3
20260903102401 86 231 0.0 2.0 0.00 0.00 0.00 46 1010.3
20260903101901 87 223 0.0 2.0 0.00 0.00 0.00 45 1010.2
20260903101401 87 231 0.0 1.0 0.00 0.00 0.00 44 1010.4
20260903100901 87 223 0.0 1.0 0.00 0.00 0.00 42 1010.4
20260903100401 87 224 0.0 0.0 0.00 0.00 0.00 41 1010.4
20260903095901 87 218 0.0 0.0 0.00 0.00 0.00 39 1010.6
20260903095401 87 220 0.0 0.0 0.00 0.00 0.00 36 1010.6
20260903094901 87 221 0.0 0.0 0.00 0.00 0.00 35 1010.6
20260903094402 88 221 0.0 0.0 0.00 0.00 0.00 34 1010.4
20260903093902 88 221 0.0 0.0 0.00 0.00 0.00 34 1010.4
20260903093401 88 267 0.0 0.0 0.00 0.00 0.00 32 1010.4
20260903093124 88 268 0.0 0.0 0.00 0.00 0.00 32 1010.4
20260903092401 88 268 0.0 0.0 0.00 0.00 0.00 32 1010.4
20260903092125 88 269 0.0 0.0 0.00 0.00 0.00 31 1010.4
20260903091833 87 254 0.0 0.0 0.00 0.00 0.00 30 1010.3
20260903091558 88 269 0.0 0.0 0.00 0.00 0.00 30 1010.4
20260903090401 87 240 0.0 0.0 0.00 0.00 0.00 29 1010.3
20260903085900 88 242 0.0 0.0 0.00 0.00 0.00 29 1010.3
20260903085621 88 242 0.0 0.0 0.00 0.00 0.00 29 1010.3
20260903084901 88 242 0.0 0.0 0.00 0.00 0.00 29 1010.3
20260903084402 88 242 0.0 0.0 0.00 0.00 0.00 30 1010.3
20260903084124 89 248 0.0 0.0 0.00 0.00 0.00 28 1010.3
20260903083854 89 248 0.0 0.0 0.00 0.00 0.00 25 1010.2
20260903082901 89 248 0.0 0.0 0.00 0.00 0.00 25 1010.2
20260903082402 89 248 0.0 0.0 0.00 0.00 0.00 25 1010.2
20260903081900 89 248 0.0 0.0 0.00 0.00 0.00 25 1010.2
20260903081401 89 248 0.0 0.0 0.00 0.00 0.00 25 1010.2
20260903080901 89 248 0.0 0.0 0.00 0.00 0.00 27 1010.1
20260903080401 89 248 0.0 0.0 0.00 0.00 0.00 27 1010.2
20260903075901 89 248 0.0 0.0 0.00 0.00 0.00 27 1010.1
20260903075402 90 248 0.0 0.0 0.00 0.00 0.00 27 1010.1
20260903074901 90 248 0.0 0.0 0.00 0.00 0.00 27 1010.1
20260903074401 90 248 0.0 0.0 0.00 0.00 0.00 27 1010.2
20260903073901 90 248 0.0 0.0 0.00 0.00 0.00 27 1010.1
20260903073401 90 248 0.0 0.0 0.00 0.00 0.00 27 1010.1
20260903073121 90 248 0.0 0.0 0.00 0.00 0.00 27 1010.1
20260903072401 91 248 0.0 0.0 0.00 0.00 0.00 26 1010.1
20260903071901 91 248 0.0 0.0 0.00 0.00 0.00 27 1010.1
20260903071401 91 248 0.0 0.0 0.00 0.00 0.00 27 1010.1
20260903070901 91 248 0.0 0.0 0.00 0.00 0.00 26 1010.0
20260903070401 91 248 0.0 0.0 0.00 0.00 0.00 26 1009.9
20260903065901 92 249 0.0 0.0 0.00 0.00 0.00 26 1009.9
20260903065401 92 249 0.0 0.0 0.00 0.00 0.00 26 1009.8
20260903064901 92 249 0.0 0.0 0.00 0.01 0.00 24 1009.9
20260903064400 92 247 0.0 0.0 0.00 0.07 0.00 26 1009.8
20260903063901 92 246 0.0 0.0 0.00 0.07 0.00 26 1009.9
20260903063400 92 247 0.0 0.0 0.00 0.07 0.00 26 1009.8
20260903062901 92 247 0.0 0.0 0.00 0.07 0.00 26 1009.8